Probability
0 0 0 0 0 0 0 0 0 0 0 0 0 0 0 0 0 0 0 0 0 0 0 0 0 0 0 0 0 0 0 0 0 0 0 0 0 0
0 0 0 0 0 0 0 0 0 0 0 0 0 0 0 0 0 0 0 0 0 0 0 0 0 0 0 0 0 0 0 0 0 0 0 0 0 0
0 0 0 0 0 0 0 0 1 0 0 0 0 0 0 0 0 0 0 0 0 0 0 0 0 0 0 0 0 0 0 0 0 0 0 0 0 0
0 0 0 0 0 0 0 0 0 0 0 0 0 0 0 0 0 0 0 0 0 0 0 0 0 0 0 0 0 0 0 0 0 0 0 0 0 0
0 0 0 0 0 0 0 0 0 0 0 0 0 0 0 0 0 0 0 0 0 0 0 0 0 0 0 0 0 0 0 0 0 0 0 0 0 0
0 0 0 0 0 0 0 0 0 0 0 0 0 0 0 0 0 0 0 0 0 0 0 0 0 0 0 0 0 0 0 0 0 0 0 0 0 0
0 0 0 0 0 0 0 0 0 0 0 0 0 0 0 0 0 0 0 0 0 0 0 0 0 0 0 0 0 0 0 0 0 0 0 0 0 0
0 0 0 0 0 0 0 0 0 0 0 0 0 0 0 0 0 0 0 0 0 0 0 0 0 0 0 0 0 0 0 0 0 0 0 0 0 0
0 0 0 0 0 0 0 0 0 0 0 0 0 0 0 0 0 0 0 0 0 0 0 0 0 0 0 0 0 0 0 0 0 0 0 0 0 0
0 0 0 0 0 0 0 0 0 0 0 0 0 0 0 0 0 0 0 0 0 0 0 0 0 0 0 0 0 0 0 0 0 0 0 0 0 0
0 0 0 0 0 0 0 0 0 0 0 0 0 0 0 0 0 0 0 0 0 0 0 0 0 0 0 0 0 0 0 0 0 0 0 0 0 0
0 0 0 0 0 0 0 0 0 0 0 0 0 0 0 0 0 0 0 0 0 0 0 0 0 0 0 0 0 0 0 0 0 0 0 0 0 0
0 0 0 0 0 0 0 0 0 0 0 0 0 0 0 0 0 0 0 0 0 0 0 0 0 0 0 0 0 0 0 0 0 0 0 0 0 0
0 0 0 0 0 0 0 0 0 0 0 0 0 0 0 0 0 0 0 0 0 0 0 0 0 0 0 0 0 0 0 0 0 0 0 0 0 0
0 0 0 0 0 0 0 0 0 0 0 0 0 0 0 0 0 0 0 0 0 0 0 0 0 0 0 0 0 0 0 0 0 0 0 0 0 0
0 0 0 0 0 0 0 0 0 0 0 0 0 0 0 0 0 0 0 0 0 0 0 0 0 0 0 0 0 0 0 0 0 0 0 0 0 0
0 0 0 0 0 0 0 0 0 0 0 0 0 0 0 0 0 0 0 0 0 0 0 0 0 0 0 0 0 0 0 0 0 0 0 0 0 0
0 0 0 0 0 0 0 0 0 0 0 0 0 0 0 0 0 0 0 0 0 0 0 0 0 0 0 0 0 0 0 0 0 0 0 0 0 0
0 0 0 0 0 0 0 0 0 0 0 0 0 0 0 0 0 0 0 0 0 0 0 0 0 0 0 0 0 0 0 0 0 0 0 0 0 0
0 0 0 0 0 0 0 0 0 0 0 0 0 0 0 0 0 0 0 0 0 0 0 0 0 0 0 0 0 0 0 0 0 0 0 0 0 0
0 0 0 0 0 0 0 0 0 0 0 0 0 0 0 0 0 0 0 0 0 0 0 0 0 0 0 0 0 0 0 0 0 0 0 0 0 0
0 0 0 0 0 0 0 0 0 0 0 0 0 0 0 0 0 0 0 0 0 0 0 0 0 0 0 0 0 0 0 0 0 0 0 0 0 0
0 0 0 0 0 0 0 0 0 0 0 0 0 0 0 0 0 0 0 0 0 0 0 0 0 0 0 0 0 0 0 0 0 0 0 0 0 0
Wind_Speed
1 2 2 1 1 1 2 2 3 4 4 3 2 2 2 3 6 5 5 10 12 12 13 13 13 13 13 13 13 14 14 14 14 15 16 16 17 17
1 2 1 1 1 1 2 2 3 4 5 3 3 3 3 4 7 5 6 12 12 13 13 13 13 13 13 12 12 13 14 14 15 16 17 17 18 18
1 1 2 2 2 2 2 2 3 3 6 4 3 3 4 5 5 5 6 6 6 12 13 13 13 13 13 12 12 13 13 14 15 16 17 17 17 17
1 1 1 1 2 2 2 3 3 3 4 7 4 3 5 5 5 5 5 5 5 11 13 13 13 13 12 12 13 13 13 14 14 15 16 16 16 17
1 1 1 1 2 2 2 3 3 3 4 5 5 3 3 3 4 5 5 5 6 8 11 11 12 12 13 13 13 13 13 14 14 15 16 16 16 16
1 1 1 2 3 3 3 3 3 3 4 4 4 4 3 3 3 4 5 4 5 6 7 8 10 12 13 13 13 13 13 13 14 15 15 15 15 15
1 1 2 2 3 3 3 3 3 3 3 4 4 4 4 3 4 3 6 6 6 4 4 5 5 5 7 10 11 12 13 13 14 15 15 15 15 15
1 2 2 3 4 5 5 4 3 3 4 4 4 5 5 5 4 4 5 6 6 2 4 6 4 6 5 5 10 13 13 13 14 14 14 14 14 15
1 2 2 2 3 3 4 5 5 6 6 4 5 6 6 5 5 6 5 6 8 5 5 7 4 6 5 6 12 13 13 13 13 13 13 13 13 12
1 2 2 3 3 2 2 2 3 3 4 3 4 5 6 5 5 6 7 7 6 5 3 6 4 5 6 5 10 11 12 12 12 13 13 13 13 11
1 2 2 2 4 4 2 2 3 3 4 5 6 7 9 9 7 4 4 5 6 5 2 3 3 5 5 5 6 9 11 12 14 14 14 13 12 10
1 2 3 3 5 5 2 2 3 4 3 4 5 6 6 6 7 4 4 5 5 4 2 2 3 4 5 3 3 4 6 11 13 13 14 13 12 6
1 1 2 5 5 5 4 2 4 4 3 3 3 4 4 4 4 4 3 4 5 5 3 3 3 3 4 6 5 4 5 5 6 8 10 12 11 7
1 1 2 5 6 6 4 4 6 5 2 3 3 4 4 4 4 5 5 5 5 7 6 4 4 4 5 6 6 5 5 4 5 5 5 9 9 9
1 2 4 5 5 4 5 6 5 3 2 3 4 4 4 4 5 5 5 5 5 5 5 5 5 5 5 6 6 6 6 5 4 5 5 5 5 4
1 2 3 4 3 4 4 4 3 2 2 3 4 4 4 4 4 4 5 5 5 5 4 4 5 5 5 6 6 6 5 5 5 5 5 5 5 4
0 0 1 1 2 2 2 2 2 2 3 3 3 4 5 5 5 4 4 5 4 5 6 4 4 4 6 6 5 6 6 6 5 5 5 6 5 4
0 0 1 1 1 2 2 2 2 2 3 3 3 4 5 5 6 5 4 4 5 6 5 5 5 5 4 4 6 5 5 5 5 5 4 5 6 4
1 1 1 2 2 2 2 2 3 3 3 3 3 4 4 5 5 5 5 5 6 6 5 4 4 3 5 6 5 4 4 5 5 5 4 4 5 5
1 2 2 2 2 2 2 2 3 3 3 3 4 4 4 5 5 5 5 6 6 6 6 5 4 4 5 6 6 6 6 5 4 5 4 4 4 5
2 2 2 2 2 2 2 2 3 3 3 3 4 4 4 5 5 5 6 9 7 6 7 7 6 7 5 3 4 5 5 5 5 4 3 3 3 3
2 2 2 2 2 2 2 2 3 3 4 4 4 4 4 4 6 7 6 6 6 6 7 6 6 4 3 4 5 6 6 4 4 5 5 3 2 2
3 3 2 2 3 2 3 3 4 3 3 4 4 4 5 5 5 6 6 6 6 6 6 6 5 4 3 4 4 4 5 4 3 3 3 5 4 3
Wind_Direction
180 172 195 222 223 225 211 206 220 252 259 247 247 258 277 274 287 276 272 285 286 285 286 288 289 288 285 283 282 285 285 284 281 278 275 275 275 270
174 165 197 218 216 217 216 222 220 234 258 249 246 265 279 289 291 281 274 289 285 284 285 286 287 287 285 283 283 284 285 284 281 278 275 275 273 267
168 173 207 214 223 228 221 222 230 231 259 272 261 270 265 274 285 275 273 268 275 284 284 286 286 285 285 284 284 286 286 286 284 280 278 277 272 266
181 170 211 218 226 230 225 230 235 231 248 271 277 273 268 275 279 283 286 283 276 284 285 286 286 286 287 287 287 289 289 287 287 284 279 278 272 265
202 200 226 220 247 251 245 242 248 254 247 264 277 273 278 287 293 291 286 279 284 287 287 285 285 287 288 289 290 289 288 287 286 285 281 277 272 264
273 252 253 237 244 249 253 252 256 260 259 264 275 283 285 288 290 296 299 287 287 290 283 286 290 291 289 288 288 288 287 286 285 286 282 277 273 265
323 297 277 268 262 257 261 254 252 264 271 269 275 285 287 295 291 293 294 299 289 268 279 282 284 281 281 284 285 287 290 290 287 286 286 282 275 265
311 308 299 288 285 286 283 282 280 277 279 275 279 286 287 285 289 291 295 304 296 275 289 288 276 275 279 276 288 292 291 294 295 292 288 285 277 266
273 289 301 303 299 287 295 303 302 297 286 282 284 285 286 285 287 287 286 287 285 292 294 287 278 276 279 283 293 294 294 295 298 297 293 290 286 278
277 275 282 295 297 297 298 303 298 298 298 294 280 285 290 289 280 284 285 287 284 281 267 277 286 285 288 281 288 291 297 302 304 305 302 297 290 284
296 290 282 287 303 312 305 299 309 309 320 320 317 314 313 314 313 307 301 297 295 291 270 267 284 298 290 278 287 298 304 308 310 308 305 299 293 284
307 305 307 309 313 318 312 301 304 307 317 327 325 325 321 322 323 307 290 289 295 293 283 288 292 316 304 286 292 302 303 305 308 308 308 305 298 284
298 309 313 326 327 327 325 307 307 322 329 323 320 322 326 327 321 314 295 279 280 277 283 296 289 291 278 294 298 292 292 296 300 301 307 309 302 285
274 289 308 327 330 334 335 334 339 344 339 333 328 327 328 325 319 312 303 288 271 270 275 272 272 281 286 288 292 301 301 298 297 295 297 305 301 289
292 314 325 333 341 347 352 351 354 356 345 335 325 317 311 306 308 310 308 299 286 273 270 263 261 272 272 276 285 293 301 300 294 297 298 297 290 284
323 333 343 354 360 358 355 356 355 343 336 323 315 311 311 311 314 317 316 316 310 303 283 265 261 261 270 274 277 286 288 289 301 304 299 292 289 282
298 1 9 359 0 354 347 347 348 349 345 331 322 319 319 319 317 320 313 313 304 303 308 305 286 268 256 262 272 277 284 286 287 296 297 293 290 285
309 310 310 316 319 321 326 332 332 331 330 324 321 319 318 318 317 316 310 308 304 302 300 304 312 315 308 277 240 264 276 283 294 295 287 285 291 294
256 251 263 275 285 294 303 308 308 314 317 315 315 313 312 312 312 312 313 311 307 303 299 296 298 306 308 307 293 249 273 293 299 295 288 278 280 289
218 238 253 262 272 279 286 293 299 306 308 308 308 306 306 307 307 307 306 306 307 306 305 299 290 288 285 285 290 290 280 279 289 294 295 289 282 287
229 238 245 251 262 271 277 281 285 289 292 296 297 299 301 304 302 302 302 306 307 303 304 301 290 294 287 282 286 291 291 280 277 277 289 298 304 313
235 241 245 245 250 257 266 272 279 284 288 288 291 293 294 294 295 299 302 303 302 299 298 297 299 300 290 282 289 294 300 309 309 299 288 275 269 276
237 241 243 241 242 247 253 260 268 277 280 282 286 288 291 293 293 295 298 298 299 299 301 302 304 299 290 278 283 289 298 309 315 324 319 322 304 281